Cyclone, PA

10:49 PM EDT on August 28, 2016 (GMT -0400)
Bradford Regional

Weather History for KBFD - October, 2013

Change the Weather History Date:

Sunday, October 6, 2013

  Actual Average Record
Temperature  
Mean Temperature 70 °F 49 °F  
Max Temperature 79 °F 61 °F 79 °F (2007)
Min Temperature 60 °F 38 °F 18 °F (1958)
Degree Days  
Heating Degree Days 0 11  
Month to date heating degree days 14 63  
Since 1 July heating degree days 390 480  
Cooling Degree Days 5 0  
Month to date cooling degree days 9 0  
Year to date cooling degree days 334 192  
Growing Degree Days 19 (Base 50)    
Moisture  
Dew Point 61 °F    
Average Humidity 73    
Maximum Humidity 100    
Minimum Humidity 45    
Precipitation  
Precipitation 0.58 in 0.12 in 1.34 in (1959)
Month to date precipitation 0.79 0.73  
Year to date precipitation 24.73 34.60  
Sea Level Pressure  
Sea Level Pressure 29.96 in    
Wind  
Wind Speed 7 mph (SSE)    
Max Wind Speed 17 mph    
Max Gust Speed 28 mph    
Visibility 4 miles    
Events Fog , Rain    
T = Trace of Precipitation, MM = Missing Value Source: NWS Daily Summary

Daily Weather History Graph

Daily Weather History Graph

Search for Another Location

Airport or City:

Trip Planner

Search our weather history database for the weather conditions in past years. The results will help you decide how hot, cold, wet, or windy it might be!

Date:

Astronomy

Oct. 06, 2013 Rise Set
Actual Time 7:17 AM EDT 6:47 PM EDT
Civil Twilight 6:49 AM EDT 7:15 PM EDT
Nautical Twilight 6:17 AM EDT 7:47 PM EDT
Astronomical Twilight 5:44 AM EDT 8:19 PM EDT
Moon 9:01 AM EDT (10/6) 7:43 PM EDT (10/6)
Length of Visible Light 12h 25m
Length of Day
11h 30m
Waxing Crescent, 3% of the Moon is Illuminated
Oct 6
Waxing Crescent
Oct 11
First Quarter
Oct 18
Full
Oct 26
Last Quarter
Nov 3
New

Hourly Weather History & Observations

Time (EDT) Temp. Dew Point Humidity Pressure Visibility Wind Dir Wind Speed Gust Speed Precip Events Conditions
12:49 AM 62.6 °F 60.8 °F 94% 30.04 in 0.2 mi SE 4.6 mph - N/A Fog Fog
12:53 AM 63.0 °F 61.0 °F 93% 30.00 in 0.5 mi SE 3.5 mph - N/A Fog Fog
1:03 AM 62.1 °F 61.0 °F 96% 30.03 in 1.0 mi SE 3.5 mph - N/A   Partly Cloudy
1:11 AM 62.1 °F 61.0 °F 96% 30.03 in 0.8 mi SE 3.5 mph - N/A   Partly Cloudy
1:24 AM 63.0 °F 62.1 °F 97% 30.03 in 1.8 mi SE 3.5 mph - N/A   Mostly Cloudy
1:40 AM 63.0 °F 62.1 °F 97% 30.04 in 2.0 mi NW 3.5 mph - 0.01 in Rain Rain
1:49 AM 64.4 °F 62.6 °F 94% 30.04 in 3.0 mi Calm Calm - 0.02 in Rain Light Rain
1:53 AM 64.0 °F 63.0 °F 96% 30.00 in 4.0 mi Calm Calm - 0.02 in Rain Light Rain
2:14 AM 63.0 °F 61.0 °F 93% 30.03 in 1.8 mi SE 3.5 mph - 0.00 in   Overcast
2:23 AM 63.0 °F 61.0 °F 93% 30.03 in 0.8 mi SE 3.5 mph - 0.00 in   Mostly Cloudy
2:35 AM 63.0 °F 61.0 °F 93% 30.03 in 0.2 mi SSE 3.5 mph - 0.00 in Fog Fog
2:43 AM 63.0 °F 61.0 °F 93% 30.03 in 0.5 mi Calm Calm - 0.00 in Fog Fog
2:53 AM 62.1 °F 61.0 °F 96% 29.99 in 0.2 mi SE 3.5 mph - 0.00 in Fog Fog
3:03 AM 61.0 °F 60.1 °F 97% 30.02 in 0.2 mi Calm Calm - N/A Fog Fog
3:10 AM 62.1 °F 60.1 °F 93% 30.02 in 0.2 mi Calm Calm - N/A Fog Fog
3:24 AM 61.0 °F 60.1 °F 97% 30.02 in 0.2 mi Calm Calm - N/A Fog Fog
3:33 AM 60.1 °F 59.0 °F 96% 30.02 in 0.5 mi Calm Calm - N/A Fog Fog
3:53 AM 62.1 °F 60.1 °F 93% 29.97 in 1.5 mi SSE 3.5 mph - N/A   Mostly Cloudy
3:59 AM 62.1 °F 61.0 °F 96% 30.01 in 3.0 mi SSE 3.5 mph - N/A   Mostly Cloudy
4:53 AM 63.0 °F 62.1 °F 97% 29.97 in 7.0 mi South 3.5 mph - 0.01 in   Overcast
5:16 AM 64.0 °F 62.1 °F 93% 30.01 in 4.0 mi SSE 4.6 mph - 0.02 in Rain Light Rain
5:20 AM 64.0 °F 62.1 °F 93% 30.01 in 1.8 mi Calm Calm - 0.09 in Rain Heavy Rain
5:30 AM 64.0 °F 62.1 °F 93% 30.01 in 0.8 mi SSE 5.8 mph - 0.29 in Rain Heavy Rain
5:44 AM 64.0 °F 62.1 °F 93% 30.01 in 1.5 mi SE 4.6 mph - 0.42 in Rain Light Rain
5:53 AM 64.0 °F 62.1 °F 93% 29.97 in 3.0 mi SE 4.6 mph - 0.43 in Rain Light Rain
6:30 AM 64.0 °F 62.1 °F 93% 30.01 in 1.8 mi Calm Calm - 0.05 in Rain Rain
6:43 AM 64.0 °F 62.1 °F 93% 30.01 in 3.0 mi Calm Calm - 0.08 in Rain Light Rain
6:53 AM 64.0 °F 62.1 °F 93% 29.96 in 4.0 mi ESE 3.5 mph - 0.08 in Rain Light Rain
7:09 AM 64.0 °F 62.1 °F 93% 30.00 in 2.5 mi Calm Calm - 0.00 in   Overcast
7:18 AM 64.0 °F 62.1 °F 93% 30.00 in 4.0 mi Calm Calm - 0.00 in   Overcast
7:38 AM 64.0 °F 62.1 °F 93% 30.00 in 2.5 mi Calm Calm - 0.00 in   Overcast
7:44 AM 64.0 °F 62.1 °F 93% 30.00 in 1.8 mi ESE 3.5 mph - 0.00 in   Overcast
7:53 AM 64.0 °F 62.1 °F 93% 29.96 in 1.2 mi Calm Calm - 0.00 in   Overcast
8:14 AM 64.0 °F 62.1 °F 93% 30.01 in 3.0 mi SE 3.5 mph - 0.03 in Rain Light Rain
8:53 AM 64.9 °F 63.0 °F 93% 29.97 in 5.0 mi SSE 4.6 mph - 0.04 in Rain Light Rain
9:53 AM 66.9 °F 63.0 °F 87% 29.96 in 10.0 mi SSW 4.6 mph - 0.00 in   Mostly Cloudy
10:53 AM 71.1 °F 62.1 °F 73% 29.94 in 10.0 mi South 6.9 mph - N/A   Clear
11:53 AM 73.9 °F 63.0 °F 68% 29.93 in 10.0 mi South 10.4 mph - N/A   Clear
12:53 PM 75.9 °F 62.1 °F 62% 29.91 in 10.0 mi SW 11.5 mph 23.0 mph N/A   Scattered Clouds
1:53 PM 77.0 °F 61.0 °F 58% 29.89 in 10.0 mi SSW 6.9 mph 19.6 mph N/A   Mostly Cloudy
2:53 PM 78.1 °F 61.0 °F 56% 29.87 in 10.0 mi South 6.9 mph 20.7 mph N/A   Scattered Clouds
3:53 PM 78.1 °F 60.1 °F 54% 29.85 in 10.0 mi SSW 9.2 mph - N/A   Mostly Cloudy
4:53 PM 78.1 °F 57.9 °F 50% 29.83 in 10.0 mi South 9.2 mph 17.3 mph N/A   Clear
5:53 PM 78.1 °F 55.0 °F 45% 29.83 in 10.0 mi SSW 8.1 mph 17.3 mph N/A   Clear
6:53 PM 75.9 °F 55.9 °F 50% 29.82 in 10.0 mi SSE 4.6 mph - N/A   Overcast
7:53 PM 73.9 °F 55.9 °F 53% 29.82 in 10.0 mi SSE 5.8 mph - N/A   Mostly Cloudy
8:53 PM 73.0 °F 59.0 °F 61% 29.81 in 10.0 mi SE 12.7 mph 20.7 mph N/A   Mostly Cloudy
9:53 PM 72.0 °F 60.1 °F 66% 29.80 in 10.0 mi SSE 12.7 mph 23.0 mph N/A   Clear
10:53 PM 71.1 °F 57.9 °F 63% 29.81 in 10.0 mi SSE 9.2 mph - N/A   Clear
11:53 PM 70.0 °F 57.0 °F 63% 29.79 in 10.0 mi SSE 9.2 mph 18.4 mph N/A   Clear